IRNSS-1G

Last updated on Tue Sep 22 2026 00:03:13 GMT+0000 (Coordinated Universal Time)

1 41469U 16027A 26264.37215682 -.00000336 00000+0 00000+0 0 9995 2 41469 5.4290 95.2376 0002703 42.5536 125.8754 1.00277666 38148
UTC large
Height (km)
Speed (km/s)
/
Latitude / Longitude
Inclination (degrees)
Orbital Period (minutes)
Azimuth
Elevation
Range (km)
Doppler Factor

Next 0 passes for location: London (51.5072 / 0.1276)

No passes found over London.
IRNSS-1G